[Iaude] MPEC V125: 2023 VR3 [a=2.61,e=0.62,i=1.2,H=26.3]
    mpec at marsden.cfa.harvard.edu 
    mpec at marsden.cfa.harvard.edu
       
    Wed Nov  8 17:09:25 EST 2023
    
    
  
M.P.E.C. 2023-V125                             Issued 2023 November 8, 22:07 UT
     The Minor Planet Electronic Circulars contain information on unusual
         minor planets, routine data on comets and natural satellites,
         and occasional editorial announcements.  They are published
    on behalf of Division F of the International Astronomical Union by the
          Minor Planet Center, Smithsonian Astrophysical Observatory,
                          Cambridge, MA 02138, U.S.A.
			  
             Prepared using the Tamkin Foundation Computer Network
                              MPC at CFA.HARVARD.EDU
            URL https://www.minorplanetcenter.net/    ISSN 1523-6714
                                    2023 VR3                                    
Observations:
     K23V03R*1C2023 11 08.21381900 14 18.769-05 28 12.90         19.26GVEV125G96
     K23V03R 1C2023 11 08.21901200 14 25.976-05 28 01.74         19.63GVEV125G96
     K23V03R 1C2023 11 08.22421800 14 33.245-05 27 51.01         19.82GVEV125G96
     K23V03R 1C2023 11 08.22941600 14 40.564-05 27 39.28         20.01GVEV125G96
     K23V03R mC2023 11 08.24348300 15 00.202-05 27 10.48         20.09GVEV125I52
     K23V03R mC2023 11 08.24375700 15 00.673-05 27 09.11         20.46GVEV125I52
     K23V03R mC2023 11 08.24404700 15 01.048-05 27 07.88         19.82GVEV125I52
     K23V03R KC2023 11 08.28471400 15 58.921-05 25 38.78         19.59GVEV125I52
     K23V03R KC2023 11 08.28526800 15 59.724-05 25 37.42         19.58GVEV125I52
     K23V03R KC2023 11 08.28583200 16 00.527-05 25 36.23         19.73GVEV125I52
     K23V03R KC2023 11 08.28639400 16 01.373-05 25 35.08         19.56GVEV125I52
     K23V03R KC2023 11 08.73054300 28 37.76 -05 09 07.2          19.3 GVEV125L01
     K23V03R KC2023 11 08.73202300 28 40.26 -05 09 04.4          19.3 GVEV125L01
     K23V03R KC2023 11 08.73350500 28 42.81 -05 09 00.6          19.7 GVEV125L01
     K23V03R KC2023 11 08.73498800 28 45.24 -05 08 56.5          19.3 GVEV125L01
     K23V03R KC2023 11 08.73646900 28 47.79 -05 08 52.5          19.5 GVEV125L01
     K23V03R KB2023 11 08.78179 00 30 03.75 -05 07 01.0          19.4 RZEV125106
     K23V03R KB2023 11 08.78600 00 30 10.83 -05 06 49.7                ZEV125106
     K23V03R KB2023 11 08.79010 00 30 17.76 -05 06 39.6                ZEV125106
     K23V03R KC2023 11 08.79325 00 30 24.21 -05 06 21.7                VEV125104
     K23V03R KB2023 11 08.79434 00 30 24.89 -05 06 28.4                ZEV125106
     K23V03R KC2023 11 08.80291 00 30 40.56 -05 05 57.3          19.7 GVEV125104
     K23V03R KC2023 11 08.82528400 31 18.76 -05 05 06.7          20.1 GVEV125L06
     K23V03R KC2023 11 08.82610300 31 20.16 -05 05 04.9          20.0 GVEV125L06
     K23V03R 1C2023 11 08.83465 00 31 33.67 -05 05 02.2          19.6 VXEV125033
     K23V03R 1C2023 11 08.83493 00 31 34.14 -05 05 01.7          19.5 VXEV125033
     K23V03R 1C2023 11 08.83522 00 31 34.62 -05 05 01.3          19.4 VXEV125033
Observer details:
033 Karl Schwarzschild Observatory, Tautenburg.  Observers S. Melnikov, C.
    Hogner, F. Ludwig, M. Hartmann, B. Stecklum.  Measurer B. Stecklum.
    1.34-m f/3 Schmidt + CCD.
104 San Marcello Pistoiese.  Observers P. Bacci, M. Maestripieri.  Measurer P.
    Bacci.  0.60-m f/4.0 reflector + CCD.
106 Crni Vrh.  Observer H. Mikuz.  0.60-m f/3.3 reflector + CMO.
G96 Mt. Lemmon Survey.  Observer D. Rankin.  Measurers E. C. Beshore, D. Fay,
    J. B. Fazekas, D. C. Fuls, A. R. Gibbs, A. D. Grauer, H. Groeller, J. K.
    Hogan, R. A. Kowalski, S. M. Larson, G. J. Leonard, D. Rankin, R. L.
    Seaman, F. C. Shelly, K. W. Wierzchos.  1.5-m reflector + 10K CCD.
I52 Steward Observatory, Mt. Lemmon Station.  Observer H. Groeller.  Measurers
    E. C. Beshore, D. Fay, J. B. Fazekas, D. C. Fuls, A. R. Gibbs, A. D.
    Grauer, H. Groeller, J. K. Hogan, R. A. Kowalski, S. M. Larson, G. J.
    Leonard, D. Rankin, R. L. Seaman, F. C. Shelly, K. W. Wierzchos.  1.0-m
    prime focus + CCD.
L01 Visnjan Observatory, Tican.  Observer K. Korlevic.  1.0-m f/2.9 reflector
    + CCD.
L06 Sormano 2 Observatory, Bellagio Via Lattea.  Observer G. Ventre.  Measurer
    P. Sicoli.  0.36m Schmidt Cassegrain + CCD.
Orbital elements:
2023 VR3                                                 Earth MOID = 0.0147 AU
Epoch 2023 Sept. 13.0 TT = JDT 2460200.5                Veres                   
M 345.03785              (2000.0)            P               Q                  
n   0.23383902     Peri.  197.14756     +0.58960343     -0.80759261             
a   2.6093043      Node   216.72641     +0.74351737     +0.54884425             
e   0.6154649      Incl.    1.21950     +0.31551500     +0.21578732             
P   4.21           H   26.39          G   0.15           U   8                  
Residuals in seconds of arc
231108 G96  0.0   0.1-    231108 I52  0.3-  0.1-    231108 106  0.4+  0.4-
231108 G96  0.3-  0.1+    231108 I52  0.2+  0.2-    231108 104  0.5-  0.7+
231108 G96  0.2-  0.2-    231108 L01  0.5-  0.1+    231108 106  0.0   0.2-
231108 G96  0.7+  0.4+    231108 L01  0.2-  0.8-    231108 104  0.2+  0.0
231108 I52  0.9-  1.0-    231108 L01  0.7+  0.7-    231108 L06  0.2+  0.2-
231108 I52  0.4+  0.2-    231108 L01  0.2-  0.2-    231108 L06  0.3+  0.6-
231108 I52  0.1-  0.4+    231108 L01  0.8+  0.1+    231108 033  0.0   0.2-
231108 I52  0.2-  0.1-    231108 106  0.4+  0.3-    231108 033  0.2-  0.5-
231108 I52  0.1-  0.0     231108 106  0.1+  0.1+    231108 033  0.4-  0.8-
Ephemeris:
2023 VR3                 a,e,i = 2.61, 0.62, 1                   q = 1.0034
Date    TT    R. A. (2000) Decl.     Delta      r    Elong.  Phase     V
2023 10 09    22 22 27.5 -05 53 23   0.1554  1.1226   140.0    34.9    24.0
...
2023 10 24    22 27 29.1 -06 46 38   0.08864 1.0495   126.1    50.0    23.1
...
2023 11 01    22 50 02.0 -06 49 13   0.05401 1.0234   123.3    54.2    22.1
...
2023 11 07    23 48 23.9 -05 58 11   0.02927 1.0106   130.8    47.9    20.5
2023 11 08    00 09 07.0 -05 31 49   0.02555 1.0091   134.6    44.4    20.2
2023 11 09    00 36 36.9 -04 51 55   0.02212 1.0077   139.8    39.4    19.7
...
2023 11 15    06 01 16.1 +05 20 48   0.01868 1.0034   138.2    41.1    19.4
...
2023 11 23    08 26 00.2 +07 59 13   0.04885 1.0076   112.8    64.7    22.1
...
2023 12 08    09 02 01.1 +08 47 58   0.1123  1.0453   119.6    55.0    23.7
M. P. C. Staff               (C) Copyright 2023 MPC           M.P.E.C. 2023-V125
    
    
More information about the Iaude
mailing list